Flight Track Log - Related Links

Times and Time Zones

All times are in EDT time to prevent confusion due to time zone crossing. See the SKW4664 flight status page for this flight to view local times or setup timezone preferences in your user account.


Time Position Orientation Groundspeed Altitude Reporting Facility
EDT Latitude Longitude Course Direction KTS MPH feet Rate Location/Type
Thu 12:07:32 PM 43.6467 -96.7083 34° Northeast 190 219 4,400  Level Minneapolis Center
Thu 12:08:34 PM 43.6922 -96.6436 46° Northeast 219 252 8,000 2,952 Climbing Minneapolis Center
Thu 12:09:00 PM 43.7727 -96.3755 51° Northeast  Level FlightAware Approximate
Thu 12:09:36 PM 43.7350 -96.5631 54° Northeast 239 275 10,500  Level Minneapolis Center
Thu 12:10:00 PM 43.8416 -96.2544 53° Northeast  Level FlightAware Approximate
Thu 12:10:37 PM 43.7842 -96.4706 54° Northeast 272 313 12,900  Level Minneapolis Center
Thu 12:11:00 PM 43.9086 -96.1314 53° Northeast  Level FlightAware Approximate
Thu 12:11:39 PM 43.8356 -96.3706 55° Northeast 310 357 15,100  Level Minneapolis Center
Thu 12:12:00 PM 43.9766 -96.0091 52° Northeast  Level FlightAware Approximate
Thu 12:12:41 PM 43.9022 -96.2450 54° Northeast 333 383 17,400  Level Minneapolis Center
Thu 12:13:43 PM 43.9589 -96.1336 55° Northeast 353 406 18,300 976 Climbing Minneapolis Center
Thu 12:14:44 PM 44.0206 -96.0144 54° Northeast 381 438 19,400 1,073 Climbing Minneapolis Center
Thu 12:15:46 PM 44.0861 -95.8900 54° Northeast 403 464 20,500 1,113 Climbing Minneapolis Center
Thu 12:16:48 PM 44.1394 -95.7478 62° Northeast 416 479 21,700 1,210 Climbing Minneapolis Center
Thu 12:17:50 PM 44.2033 -95.5681 64° Northeast 431 496 23,000 629 Climbing Minneapolis Center
Thu 12:18:52 PM 44.2592 -95.4094 64° Northeast 450 518 23,000  Level Minneapolis Center
Thu 12:19:53 PM 44.3164 -95.2444 64° Northeast 469 540 23,000  Level Minneapolis Center
Thu 12:20:55 PM 44.3764 -95.0783 63° Northeast 479 551 23,000  Level Minneapolis Center
Thu 12:21:57 PM 44.4350 -94.9100 64° Northeast 482 555 23,000 -1,306 Level Minneapolis Center
Thu 12:22:59 PM 44.4919 -94.7458 64° Northeast 475 547 20,300 -2,613 Descending Minneapolis Center
Thu 12:24:01 PM 44.5522 -94.5689 64° Northeast 452 520 17,600 -2,634 Descending Minneapolis Center
Thu 12:25:02 PM 44.6011 -94.4264 64° Northeast 406 467 14,900 -2,634 Descending Minneapolis Center
Thu 12:26:04 PM 44.6453 -94.2972 64° Northeast 368 423 12,200 -1,887 Descending Minneapolis Center
Thu 12:27:06 PM 44.6861 -94.1761 65° Northeast 344 396 11,000 -581 Descending Minneapolis Center
Thu 12:28:08 PM 44.7175 -94.0472 71° East 348 400 11,000  Level Minneapolis Center
Thu 12:29:10 PM 44.7528 -93.8894 72° East 351 404 11,000  Level Minneapolis Center
Thu 12:30:11 PM 44.7819 -93.7583 73° East 351 404 11,000  Level Minneapolis Center
Thu 12:31:13 PM 44.8114 -93.6281 72° East 351 404 11,000 -242 Level Minneapolis Center
Thu 12:32:15 PM 44.8361 -93.5144 73° East 297 342 10,500 -1,210 Descending Minneapolis Center
Thu 12:33:17 PM 44.8586 -93.4117 73° East 275 316 8,500 -1,258 Descending Minneapolis Center
Thu 12:34:19 PM 44.8367 -93.3317 111° Southeast 256 295 7,900 -1,113 Descending Minneapolis Center
Thu 12:35:21 PM 44.7692 -93.3167 171° South 253 291 6,200 -1,694 Descending Minneapolis Center
Thu 12:36:23 PM 44.6892 -93.2936 168° South 255 293 4,400 -1,024 Descending Minneapolis Center
Thu 12:37:24 PM 44.6814 -93.2139 98° East 223 257 4,100 -634 Descending Minneapolis Center
Thu 12:38:26 PM 44.7236 -93.1903 22° Northeast 201 231 3,100 -968 Descending Minneapolis Center

Login

Don't have an account? Register now (free) for customized features, flight alerts, and more!